Wind_Speed
19 19 20 20 19 19 20 20 20 21 22 22 22 22 23 23 22 22 22 21 21 22 21 21 21 21 21 20 21 21 21 21 21 22 21 22 22 21
21 21 21 21 21 22 21 22 22 23 23 23 23 23 23 23 23 23 23 23 23 23 23 23 23 23 23 23 23 23 23 23 23 23 23 23 23 23
22 22 22 22 23 23 23 23 24 24 23 24 24 25 25 25 24 25 24 24 25 25 25 25 25 25 25 25 24 24 23 24 24 24 25 24 24 24
21 22 23 24 24 25 26 26 26 26 26 26 26 27 27 27 26 26 26 26 27 27 27 27 27 27 27 26 26 26 25 25 25 25 25 25 25 25
23 24 24 25 25 27 27 28 28 28 28 27 28 28 28 28 28 28 28 28 28 28 28 29 28 28 28 28 28 28 28 27 27 27 27 26 26 26
25 26 26 26 27 28 28 29 29 29 29 29 29 29 29 30 30 29 29 29 30 29 30 30 30 30 30 30 30 29 29 29 28 28 28 28 28 28
27 27 27 28 28 29 29 30 30 30 30 30 30 30 30 30 30 30 30 29 30 30 30 31 31 31 32 32 31 31 31 30 29 30 30 29 29 30
28 29 29 29 30 30 31 31 31 31 31 31 31 30 30 30 31 31 31 31 30 31 31 31 31 32 33 34 33 33 33 32 32 32 32 32 32 32
30 30 30 30 30 31 31 31 31 31 31 31 31 31 31 31 32 32 31 32 31 31 31 31 32 32 33 33 34 34 34 34 34 34 34 34 34 34
31 31 32 32 32 32 31 32 32 32 32 31 31 31 31 31 32 33 33 33 32 32 32 32 33 33 33 33 34 34 34 34 34 35 35 35 35 34
32 32 32 33 32 33 33 32 32 33 33 32 31 32 32 32 33 34 34 34 33 33 33 33 33 33 33 33 34 34 35 34 34 33 34 34 34 34
31 31 32 32 32 32 33 33 33 33 33 33 33 33 33 33 33 33 34 35 35 34 34 34 34 34 33 33 33 34 34 34 34 33 33 34 34 34
32 32 32 32 32 32 32 32 32 32 32 32 33 33 33 33 33 34 34 35 35 34 34 34 34 34 34 33 33 33 33 33 33 33 33 33 33 34
32 32 32 32 32 31 30 30 30 30 30 31 31 31 32 32 33 33 34 34 34 33 33 34 34 33 34 33 33 32 32 32 32 32 33 33 34 34
32 32 32 32 32 31 31 31 31 31 31 30 30 31 31 32 33 33 32 32 32 32 32 32 32 33 33 32 32 32 32 32 32 32 32 32 32 33
33 33 33 33 32 32 32 32 32 31 31 30 30 30 31 31 32 32 32 31 31 31 31 31 31 31 31 31 32 32 32 31 31 31 31 30 31 31
34 34 33 33 32 32 32 32 31 31 31 31 31 31 31 31 31 32 31 30 31 30 29 29 30 30 30 31 31 31 31 30 30 29 29 29 29 29
34 34 33 33 32 32 32 32 32 31 31 31 31 32 32 31 31 31 30 30 30 29 29 28 29 29 29 29 30 30 29 29 29 28 28 28 28 29
34 33 32 32 31 31 31 31 31 31 31 31 32 31 30 31 30 30 29 29 29 28 28 28 28 28 28 28 27 28 27 27 27 27 27 28 28 27
32 32 31 31 31 30 30 29 30 30 29 30 30 29 29 28 28 28 27 27 27 27 26 26 26 26 26 26 25 25 25 25 26 26 26 26 26 26
31 31 30 30 30 29 29 29 29 29 29 28 28 27 27 27 28 27 26 25 25 24 23 23 24 25 25 25 25 24 24 24 25 25 25 25 24 24
30 30 30 29 29 29 28 28 28 28 28 27 28 28 27 27 27 26 24 24 23 23 23 23 24 24 24 24 23 23 24 24 24 24 24 23 23 23
30 30 29 29 29 28 27 28 28 28 28 28 28 27 27 27 26 25 24 24 24 24 23 24 23 23 23 23 22 22 22 22 22 22 23 23 23 23
Wind_Direction
289 288 288 288 287 289 290 289 289 287 286 285 285 284 283 283 284 282 284 281 278 277 277 277 276 276 277 278 277 276 276 277 276 276 278 279 279 278
289 288 287 288 288 289 291 292 291 290 289 287 286 287 286 286 284 284 285 282 280 279 277 275 274 274 275 277 277 277 275 275 276 276 277 276 275 275
292 290 289 288 288 289 290 291 292 292 291 289 289 288 287 287 286 283 283 284 282 280 277 274 273 273 273 274 275 276 277 276 276 276 277 276 275 275
294 292 290 287 287 287 287 288 289 289 289 288 287 287 287 287 286 285 282 283 283 280 277 276 276 274 273 273 274 275 276 276 276 275 277 277 277 277
293 292 291 288 285 286 287 287 287 288 290 288 286 284 284 284 284 284 284 282 281 280 277 276 277 275 273 274 275 275 275 275 276 276 276 277 276 276
292 291 290 288 286 287 287 287 287 287 288 289 287 285 284 284 283 284 284 282 282 281 279 278 276 275 274 275 275 274 274 274 275 276 276 276 276 276
291 290 290 289 289 289 290 288 287 287 287 288 286 284 283 283 283 284 283 283 283 282 281 279 276 275 274 274 275 274 273 273 274 275 275 275 276 277
292 291 290 291 290 289 289 287 286 286 286 286 286 284 283 282 283 284 284 284 283 283 283 280 277 277 276 274 274 274 273 272 273 274 274 274 275 276
292 291 291 291 291 290 288 287 287 288 287 286 285 285 285 284 284 284 284 284 283 283 283 282 280 278 276 275 274 274 272 272 272 272 272 273 274 275
292 292 292 291 290 289 288 287 287 287 286 284 284 284 284 284 284 284 284 284 283 282 282 283 281 279 277 276 276 277 276 274 273 272 271 271 272 273
292 293 293 293 292 290 289 289 287 286 285 283 283 283 283 284 284 284 284 284 283 283 282 281 280 279 279 278 276 276 276 275 275 273 272 271 270 271
292 292 292 293 292 291 289 289 288 287 286 284 284 284 284 284 285 285 284 284 283 282 281 280 280 280 280 278 277 276 275 274 274 272 271 270 270 271
292 292 291 292 292 292 291 290 289 288 287 285 285 285 284 285 285 285 285 285 284 283 282 281 281 280 279 279 278 278 276 275 273 272 272 272 271 272
292 291 291 292 292 292 292 291 291 290 290 289 287 286 286 285 285 285 286 285 285 284 283 282 281 280 279 279 278 277 277 277 276 274 273 273 272 272
292 291 291 292 292 291 291 290 290 291 290 289 288 288 287 286 285 285 285 286 286 285 284 282 281 280 279 279 278 278 276 276 276 274 273 274 274 274
292 291 290 291 291 291 290 290 290 290 289 289 289 290 290 288 288 288 289 289 289 288 286 283 281 280 279 279 278 278 277 276 275 274 273 274 276 276
291 291 290 290 289 289 290 289 289 289 288 288 288 288 289 289 289 291 291 290 290 287 286 283 281 281 280 280 278 277 277 276 273 272 272 274 276 277
289 289 289 289 289 288 288 287 287 289 289 288 289 290 290 291 291 291 291 291 289 285 283 283 283 281 281 281 280 278 278 276 274 273 274 275 276 276
288 288 288 289 289 289 290 289 288 288 288 288 289 291 292 292 292 292 291 290 288 286 284 283 282 281 280 280 281 281 280 278 277 275 276 277 277 276
288 288 287 287 288 289 289 289 289 289 289 289 290 292 294 294 294 293 291 290 290 289 287 286 286 284 283 283 283 283 283 282 281 279 278 277 276 276
288 287 287 288 288 288 289 288 288 288 289 290 291 293 293 293 294 294 292 291 291 289 287 287 289 289 287 285 285 284 284 284 283 280 278 276 275 276
288 289 288 288 288 288 288 288 288 290 289 289 290 291 292 292 294 293 293 294 293 292 289 289 290 291 290 289 288 287 286 285 284 283 280 277 275 276
288 289 289 288 288 288 289 288 288 290 290 290 289 288 288 291 293 293 293 294 294 293 290 290 291 290 289 289 288 287 286 286 285 284 281 278 277 277
Height
5859 5859 5858 5857 5857 5856 5855 5854 5854 5853 5853 5852 5851 5850 5849 5848 5847 5847 5846 5846 5846 5846 5846 5846 5846 5846 5846 5846 5846 5845 5845 5844 5844 5843 5843 5843 5842 5842
5854 5854 5853 5852 5851 5851 5850 5849 5848 5847 5846 5845 5844 5844 5843 5842 5842 5841 5840 5840 5840 5840 5839 5839 5839 5839 5839 5839 5839 5838 5838 5837 5837 5837 5836 5836 5835 5835
5849 5848 5847 5846 5846 5845 5844 5843 5842 5840 5839 5839 5838 5837 5836 5835 5835 5834 5834 5833 5833 5832 5832 5832 5832 5832 5832 5832 5832 5831 5831 5830 5829 5829 5829 5829 5828 5828
5843 5842 5841 5840 5839 5838 5837 5836 5835 5833 5832 5832 5831 5829 5829 5828 5827 5826 5826 5825 5825 5824 5824 5824 5824 5824 5824 5824 5824 5824 5823 5823 5822 5822 5821 5821 5821 5820
5838 5836 5835 5833 5832 5831 5830 5828 5827 5826 5824 5824 5823 5822 5820 5820 5819 5819 5818 5817 5816 5816 5815 5815 5816 5815 5815 5815 5815 5815 5815 5815 5815 5814 5814 5813 5813 5812
5832 5830 5828 5826 5825 5823 5822 5820 5819 5818 5817 5815 5814 5813 5812 5811 5810 5810 5809 5808 5807 5807 5806 5806 5806 5806 5806 5807 5807 5806 5806 5806 5806 5806 5805 5805 5804 5804
5824 5823 5821 5819 5817 5816 5814 5813 5811 5810 5809 5807 5806 5805 5804 5802 5801 5801 5800 5799 5798 5798 5797 5797 5797 5797 5797 5797 5797 5797 5797 5796 5796 5796 5796 5796 5795 5795
5817 5815 5814 5812 5810 5808 5806 5804 5802 5801 5800 5798 5797 5796 5795 5794 5793 5791 5791 5790 5790 5789 5788 5787 5787 5787 5786 5786 5786 5786 5786 5786 5786 5786 5786 5786 5786 5785
5809 5808 5806 5804 5801 5800 5797 5796 5794 5792 5791 5789 5788 5787 5786 5785 5784 5783 5781 5780 5780 5779 5778 5778 5777 5776 5776 5776 5776 5776 5775 5775 5775 5775 5775 5775 5775 5775
5801 5799 5797 5795 5793 5791 5789 5787 5785 5784 5782 5781 5779 5778 5776 5775 5774 5773 5772 5771 5770 5769 5768 5768 5767 5766 5766 5766 5765 5765 5764 5764 5764 5764 5764 5764 5764 5764
5793 5790 5788 5786 5784 5782 5780 5778 5777 5775 5773 5771 5770 5768 5767 5766 5764 5763 5762 5761 5760 5759 5758 5757 5757 5756 5756 5756 5755 5754 5753 5753 5753 5753 5753 5753 5753 5753
5784 5782 5779 5777 5775 5773 5771 5769 5767 5765 5763 5762 5760 5759 5757 5756 5754 5753 5752 5750 5749 5749 5748 5747 5746 5745 5746 5745 5744 5743 5743 5742 5742 5742 5742 5742 5742 5743
5776 5774 5771 5769 5766 5764 5762 5760 5758 5756 5754 5752 5751 5749 5748 5746 5745 5743 5741 5740 5739 5738 5737 5736 5735 5734 5734 5734 5733 5732 5732 5732 5731 5731 5731 5732 5732 5732
5767 5765 5762 5760 5758 5756 5753 5751 5749 5747 5745 5743 5741 5740 5738 5737 5735 5733 5732 5730 5728 5727 5726 5725 5724 5724 5723 5722 5722 5722 5721 5721 5721 5721 5721 5721 5721 5721
5758 5756 5754 5751 5749 5747 5745 5743 5740 5738 5736 5734 5733 5731 5729 5727 5725 5724 5722 5720 5718 5717 5716 5715 5714 5713 5713 5712 5712 5711 5711 5711 5710 5710 5710 5710 5710 5710
5749 5747 5745 5743 5741 5738 5736 5734 5732 5729 5727 5725 5724 5722 5720 5718 5716 5714 5713 5711 5709 5708 5707 5705 5704 5703 5703 5702 5701 5701 5701 5701 5700 5700 5700 5700 5700 5700
5740 5738 5736 5734 5732 5729 5727 5725 5723 5721 5718 5717 5715 5713 5711 5709 5707 5705 5703 5701 5700 5699 5697 5696 5695 5694 5693 5693 5692 5691 5691 5690 5690 5690 5690 5690 5691 5690
5730 5728 5726 5724 5722 5720 5718 5716 5714 5712 5710 5708 5706 5705 5702 5700 5698 5696 5694 5693 5691 5689 5688 5687 5686 5685 5684 5684 5683 5682 5681 5680 5680 5680 5680 5681 5681 5681
5720 5719 5717 5715 5712 5710 5709 5707 5705 5703 5701 5700 5698 5696 5694 5692 5689 5687 5685 5684 5682 5681 5680 5678 5677 5676 5675 5675 5674 5673 5672 5672 5671 5671 5671 5672 5672 5672
5711 5710 5708 5705 5703 5702 5700 5698 5697 5695 5693 5691 5689 5687 5685 5683 5681 5679 5677 5675 5674 5672 5671 5670 5669 5667 5667 5666 5665 5665 5664 5663 5663 5663 5663 5663 5663 5664
5701 5700 5698 5696 5694 5693 5691 5690 5688 5686 5684 5683 5681 5679 5677 5675 5673 5671 5669 5667 5666 5665 5664 5663 5661 5660 5659 5658 5657 5657 5656 5655 5655 5654 5654 5655 5655 5655
5693 5691 5689 5687 5686 5684 5683 5681 5680 5678 5676 5675 5673 5671 5669 5667 5665 5663 5661 5660 5659 5657 5656 5655 5654 5653 5651 5650 5650 5649 5648 5648 5647 5646 5646 5646 5646 5647
5684 5682 5681 5679 5677 5676 5674 5673 5671 5670 5668 5667 5665 5663 5661 5660 5658 5656 5655 5653 5652 5650 5649 5648 5647 5645 5644 5643 5643 5642 5641 5640 5639 5639 5639 5638 5638 5638